Regional Weather Roundup
Issued by NWS

Home | Current Version | Previous Version | Text Only | Print | Product List | Glossary Off
Versions: 1 2 3 4 5 6 7 8 9 10 11 12 13 14 15 16 17 18 19 20 21 22 23 24 25 26 27 28 29 30 31 32 33 34 35 36 37 38 39 40 41 42 43 44 45 46 47 48 49 50

000
ASUS43 KBIS 291802
RWRND

NORTH DAKOTA REGIONAL WEATHER ROUNDUP
NATIONAL WEATHER SERVICE BISMARCK ND
100 PM CDT SUN MAY 29 2016

NOTE: "FAIR" INDICATES FEW OR NO CLOUDS BELOW 12,000 FEET WITH NO
SIGNIFICANT WEATHER AND/OR OBSTRUCTIONS TO VISIBILITY.


NDZ001>003-009>011-017-291900-
NORTHWEST NORTH DAKOTA

CITY           SKY/WX    TMP DP  RH WIND       PRES   REMARKS
WILLISTON      SUNNY     73  35  25 W13       29.99F
6HR MIN TEMP:  45; 6HR MAX TEMP:  73;

MINOT          SUNNY     75  38  26 W15       29.97S
MINOT AFB      MOSUNNY   71  41  34 W13G21    29.96S
$$

NDZ018>021-031>035-040>046-291900-
SOUTHWEST NORTH DAKOTA

CITY           SKY/WX    TMP DP  RH WIND       PRES   REMARKS
BISMARCK       MOSUNNY   73  42  32 W9        30.02S
6HR MIN TEMP:  50; 6HR MAX TEMP:  75;

DICKINSON      MOSUNNY   72  40  31 MISG      30.01F
GARRISON         N/A     72  37  28 W12G22    30.00F
6HR MIN TEMP:  49; 6HR MAX TEMP:  72;

HETTINGER ARPT SUNNY     73  41  31 W8        30.05F
$$

NDZ004>008-012>016-024-026-027-054-291900-
NORTHEAST NORTH DAKOTA

CITY           SKY/WX    TMP DP  RH WIND       PRES   REMARKS
GRAND FORKS    MOSUNNY   71  58  63 NW9       29.93S
GRND FRKS AFB  PTSUNNY   68  57  67 N7        29.94S
DEVILS LAKE    SUNNY     71  42  35 NW18      29.96S
$$

NDZ022-023-025-028>030-036>039-047>053-291900-
SOUTHEAST NORTH DAKOTA

CITY           SKY/WX    TMP DP  RH WIND       PRES   REMARKS
FARGO          PTSUNNY   71  57  61 CALM      29.95S
6HR MIN TEMP:  57; 6HR MAX TEMP:  72;

JAMESTOWN      SUNNY     72  46  39 W15       29.98S
$$





USA.gov is the U.S. government's official web portal to all federal, state and local government web resources and services.